• In Netherlands
  • List of Countries
  • For 7 days
  • Water Temperature
  • Satellite Maps
  • Weather Map
  • Weather Widgets
  • user-avatar
    Login

    Hourly Weather Kipungo

    Today, 23 February, Thursday

    Time Temperature Precipitation Wind Pressure Humidity
    00:00 +17°C° 0 mm 2 mps 652 mmHg 74%
    01:00 +16°C° 0 mm 1 mps 652 mmHg 77%
    02:00 +15°C° 0 mm 1 mps 652 mmHg 80%
    03:00 +15°C° 0 mm 1 mps 651 mmHg 82%
    04:00 +14°C° 0 mm 1 mps 651 mmHg 84%
    05:00 +15°C° 0 mm 1 mps 652 mmHg 80%
    06:00 +16°C° 0 mm 1 mps 652 mmHg 75%
    07:00 +18°C° 0 mm 1 mps 653 mmHg 71%
    08:00 +21°C° 0 mm 1 mps 653 mmHg 59%
    09:00 +24°C° 0 mm 1 mps 654 mmHg 48%
    10:00 +27°C° 0 mm 2 mps 655 mmHg 36%
    11:00 +29°C° 0 mm 2 mps 655 mmHg 34%
    12:00 +30°C° 0 mm 2 mps 655 mmHg 31%
    13:00 +32°C° 0 mm 2 mps 655 mmHg 28%
    14:00 +33°C° 0 mm 3 mps 654 mmHg 29%
    15:00 +31°C° 0 mm 3 mps 653 mmHg 30%
    16:00 +31°C° 0 mm 3 mps 652 mmHg 31%
    17:00 +28°C° 0 mm 3 mps 652 mmHg 38%
    18:00 +26°C° 0 mm 2 mps 652 mmHg 46%
    19:00 +23°C° 0 mm 2 mps 651 mmHg 53%
    20:00 +21°C° 0 mm 2 mps 652 mmHg 56%
    21:00 +20°C° 0 mm 2 mps 652 mmHg 60%
    22:00 +19°C° 0 mm 2 mps 652 mmHg 63%
    23:00 +18°C° 0 mm 2 mps 652 mmHg 66%

    Tomorrow, 24 February, Friday

    Time Temperature Precipitation Wind Pressure Humidity
    00:00 +18°C° 0 mm 1 mps 652 mmHg 69%
    01:00 +16°C° 0 mm 1 mps 652 mmHg 73%
    02:00 +16°C° 0 mm 1 mps 651 mmHg 74%
    03:00 +15°C° 0 mm 1 mps 651 mmHg 76%
    04:00 +15°C° 0 mm 1 mps 650 mmHg 78%
    05:00 +16°C° 0 mm 1 mps 651 mmHg 74%
    06:00 +18°C° 0 mm 1 mps 652 mmHg 71%
    07:00 +19°C° 0 mm 1 mps 652 mmHg 68%
    08:00 +23°C° 0 mm 1 mps 653 mmHg 55%
    09:00 +26°C° 0 mm 1 mps 654 mmHg 41%
    10:00 +30°C° 0 mm 1 mps 655 mmHg 28%
    11:00 +31°C° 0 mm 1 mps 655 mmHg 27%
    12:00 +32°C° 0 mm 1 mps 654 mmHg 25%
    13:00 +34°C° 0 mm 2 mps 654 mmHg 24%
    14:00 +34°C° 0 mm 2 mps 654 mmHg 24%
    15:00 +32°C° 0 mm 2 mps 653 mmHg 24%
    16:00 +33°C° 0 mm 3 mps 653 mmHg 24%
    17:00 +29°C° 0 mm 2 mps 652 mmHg 31%
    18:00 +26°C° 0 mm 2 mps 652 mmHg 38%
    19:00 +23°C° 0 mm 2 mps 652 mmHg 44%
    20:00 +21°C° 0 mm 2 mps 652 mmHg 49%
    21:00 +20°C° 0 mm 2 mps 652 mmHg 54%
    22:00 +19°C° 0 mm 2 mps 653 mmHg 59%
    23:00 +18°C° 0 mm 2 mps 652 mmHg 64%

    Day after tomorrow, 25 February, Saturday

    Time Temperature Precipitation Wind Pressure Humidity
    00:00 +19°C° 0 mm 1 mps 652 mmHg 68%
    01:00 +18°C° 0 mm 1 mps 652 mmHg 73%
    02:00 +18°C° 0 mm 1 mps 651 mmHg 73%
    03:00 +18°C° 0 mm 1 mps 651 mmHg 74%
    04:00 +18°C° 0 mm 1 mps 651 mmHg 75%
    05:00 +18°C° 0 mm 1 mps 652 mmHg 73%
    06:00 +19°C° 0 mm 1 mps 652 mmHg 71%
    07:00 +20°C° 0 mm 1 mps 653 mmHg 70%
    08:00 +23°C° 0 mm 1 mps 654 mmHg 60%
    09:00 +27°C° 0 mm 1 mps 655 mmHg 50%
    10:00 +30°C° 0 mm 1 mps 655 mmHg 41%
    11:00 +31°C° 0 mm 1 mps 655 mmHg 37%
    12:00 +33°C° 0 mm 1 mps 655 mmHg 34%
    13:00 +34°C° 0 mm 1 mps 654 mmHg 31%
    14:00 +33°C° 0.3 mm 1 mps 653 mmHg 36%
    15:00 +32°C° 0.3 mm 1 mps 652 mmHg 41%
    16:00 +30°C° 0.3 mm 1 mps 652 mmHg 46%
    17:00 +28°C° 0.1 mm 1 mps 652 mmHg 53%
    18:00 +26°C° 0.1 mm 2 mps 651 mmHg 60%
    19:00 +24°C° 0.1 mm 2 mps 651 mmHg 68%
    20:00 +23°C° 0.4 mm 2 mps 652 mmHg 71%
    21:00 +21°C° 0.4 mm 2 mps 652 mmHg 74%
    22:00 +20°C° 0.4 mm 2 mps 652 mmHg 77%
    23:00 +21°C° 0 mm 1 mps 652 mmHg 78%

    26 February, Sunday

    Time Temperature Precipitation Wind Pressure Humidity
    00:00 +20°C° 0 mm 1 mps 652 mmHg 79%
    01:00 +20°C° 0 mm 1 mps 651 mmHg 80%
    02:00 +19°C° 0 mm 1 mps 651 mmHg 81%
    03:00 +19°C° 0 mm 1 mps 651 mmHg 82%
    04:00 +19°C° 0 mm 1 mps 651 mmHg 83%
    05:00 +20°C° 0 mm 1 mps 651 mmHg 81%
    06:00 +21°C° 0 mm 1 mps 652 mmHg 79%
    07:00 +19°C° 0 mm 0 mps 653 mmHg 77%
    08:00 +24°C° 0 mm 1 mps 653 mmHg 67%
    09:00 +26°C° 0 mm 1 mps 654 mmHg 57%
    10:00 +28°C° 0 mm 2 mps 654 mmHg 47%
    11:00 +29°C° 0 mm 2 mps 654 mmHg 44%
    12:00 +30°C° 0 mm 2 mps 653 mmHg 41%
    13:00 +31°C° 0 mm 2 mps 652 mmHg 37%
    14:00 +31°C° 0.2 mm 2 mps 652 mmHg 39%
    15:00 +31°C° 0.2 mm 2 mps 651 mmHg 40%
    16:00 +30°C° 0.2 mm 2 mps 651 mmHg 41%
    17:00 +28°C° 0.2 mm 2 mps 651 mmHg 51%
    18:00 +26°C° 0.2 mm 2 mps 650 mmHg 60%
    19:00 +23°C° 0.2 mm 2 mps 650 mmHg 70%
    20:00 +21°C° 0.4 mm 2 mps 650 mmHg 73%
    21:00 +20°C° 0.4 mm 2 mps 651 mmHg 76%
    22:00 +19°C° 0.4 mm 2 mps 651 mmHg 79%
    23:00 +20°C° 0.1 mm 1 mps 651 mmHg 80%

    27 February, Monday

    Time Temperature Precipitation Wind Pressure Humidity
    00:00 +20°C° 0.1 mm 1 mps 650 mmHg 82%
    01:00 +20°C° 0.1 mm 1 mps 650 mmHg 84%
    02:00 +20°C° 0.1 mm 1 mps 650 mmHg 85%
    03:00 +19°C° 0.1 mm 1 mps 650 mmHg 85%
    04:00 +19°C° 0.1 mm 1 mps 649 mmHg 86%
    05:00 +19°C° 0 mm 1 mps 650 mmHg 84%
    06:00 +20°C° 0 mm 1 mps 650 mmHg 83%
    07:00 +20°C° 0 mm 1 mps 651 mmHg 81%
    08:00 +22°C° 0.1 mm 1 mps 651 mmHg 76%
    09:00 +23°C° 0.1 mm 1 mps 652 mmHg 71%
    10:00 +24°C° 0.1 mm 1 mps 652 mmHg 66%
    11:00 +25°C° 0.1 mm 2 mps 652 mmHg 64%
    12:00 +26°C° 0.1 mm 2 mps 651 mmHg 61%
    13:00 +26°C° 0.1 mm 2 mps 651 mmHg 59%
    14:00 +26°C° 0.3 mm 2 mps 651 mmHg 62%
    15:00 +26°C° 0.3 mm 3 mps 650 mmHg 65%
    16:00 +25°C° 0.3 mm 3 mps 650 mmHg 67%
    17:00 +24°C° 0 mm 2 mps 650 mmHg 71%
    18:00 +23°C° 0 mm 2 mps 650 mmHg 75%
    19:00 +22°C° 0 mm 1 mps 651 mmHg 79%
    20:00 +21°C° 0.3 mm 1 mps 651 mmHg 83%
    21:00 +21°C° 0.3 mm 1 mps 651 mmHg 86%
    22:00 +20°C° 0.3 mm 1 mps 651 mmHg 89%
    23:00 +20°C° 0.6 mm 1 mps 651 mmHg 91%

    28 February, Tuesday

    Time Temperature Precipitation Wind Pressure Humidity
    00:00 +19°C° 0.6 mm 1 mps 651 mmHg 94%
    01:00 +19°C° 0.6 mm 1 mps 650 mmHg 96%
    02:00 +19°C° 1.2 mm 1 mps 650 mmHg 96%
    03:00 +19°C° 1.2 mm 1 mps 650 mmHg 97%
    04:00 +19°C° 1.2 mm 1 mps 650 mmHg 97%
    05:00 +19°C° 0.3 mm 1 mps 650 mmHg 96%
    06:00 +18°C° 0.3 mm 2 mps 651 mmHg 96%
    07:00 +18°C° 0.3 mm 2 mps 651 mmHg 95%
    08:00 +20°C° 0.2 mm 2 mps 652 mmHg 90%
    09:00 +21°C° 0.2 mm 2 mps 652 mmHg 85%
    10:00 +24°C° 0.2 mm 2 mps 652 mmHg 80%
    11:00 +24°C° 0.9 mm 2 mps 652 mmHg 79%
    12:00 +25°C° 0.9 mm 2 mps 652 mmHg 78%
    13:00 +25°C° 0.9 mm 2 mps 651 mmHg 78%
    14:00 +24°C° 2.3 mm 2 mps 651 mmHg 82%
    15:00 +24°C° 2.3 mm 2 mps 651 mmHg 85%
    16:00 +23°C° 2.3 mm 2 mps 650 mmHg 89%
    17:00 +21°C° 3.4 mm 2 mps 651 mmHg 91%
    18:00 +20°C° 3.4 mm 2 mps 651 mmHg 94%
    19:00 +20°C° 3.4 mm 2 mps 651 mmHg 96%
    20:00 +19°C° 2.8 mm 2 mps 651 mmHg 96%
    21:00 +19°C° 2.8 mm 2 mps 651 mmHg 96%
    22:00 +18°C° 2.8 mm 2 mps 652 mmHg 97%
    23:00 +18°C° 1.9 mm 2 mps 651 mmHg 97%
    Show more